| time (UTC) | temp F | wind direction | speed knots | gust knots | rain 1hr in | rain 24hr in | rain mn in | humidity % | barometer mb |
| 20260906232006 | 78 | 95 | 0.9 | 2.6 | 0.00 | 0.00 | 0.00 | 71 | 1019.3 |
| 20260906231505 | 78 | 91 | 1.7 | 2.6 | 0.00 | 0.00 | 0.00 | 70 | 1019.2 |
| 20260906231005 | 78 | 85 | 2.6 | 2.6 | 0.00 | 0.00 | 0.00 | 70 | 1019.1 |
| 20260906230506 | 79 | 92 | 4.3 | 7.0 | 0.00 | 0.00 | 0.00 | 69 | 1019.0 |
| 20260906225505 | 79 | 83 | 4.3 | 7.0 | 0.00 | 0.00 | 0.00 | 68 | 1018.7 |
| 20260906225005 | 79 | 80 | 5.2 | 7.8 | 0.00 | 0.00 | 0.00 | 68 | 1018.6 |
| 20260906224505 | 80 | 72 | 5.2 | 10.4 | 0.00 | 0.00 | 0.00 | 67 | 1018.6 |
| 20260906224006 | 80 | 69 | 5.2 | 10.4 | 0.00 | 0.00 | 0.00 | 66 | 1018.6 |
| 20260906223505 | 81 | 82 | 5.2 | 8.7 | 0.00 | 0.00 | 0.00 | 66 | 1018.5 |
| 20260906222506 | 81 | 95 | 4.3 | 10.4 | 0.00 | 0.00 | 0.00 | 65 | 1018.4 |
| 20260906222005 | 81 | 104 | 6.1 | 10.4 | 0.00 | 0.00 | 0.00 | 65 | 1018.2 |
| 20260906221505 | 81 | 99 | 4.3 | 7.0 | 0.00 | 0.00 | 0.00 | 65 | 1018.2 |
| 20260906220005 | 82 | 106 | 6.1 | 10.4 | 0.00 | 0.00 | 0.00 | 64 | 1018.6 |
| 20260906215505 | 82 | 94 | 5.2 | 10.4 | 0.00 | 0.00 | 0.00 | 65 | 1018.2 |
| 20260906215005 | 81 | 101 | 7.8 | 11.3 | 0.00 | 0.00 | 0.00 | 64 | 1018.1 |
| 20260906213506 | 82 | 95 | 7.0 | 10.4 | 0.00 | 0.00 | 0.00 | 63 | 1018.5 |
| 20260906212505 | 82 | 84 | 6.1 | 10.4 | 0.00 | 0.00 | 0.00 | 64 | 1018.5 |
| 20260906211505 | 82 | 98 | 6.1 | 10.4 | 0.00 | 0.00 | 0.00 | 63 | 1018.9 |
| 20260906211006 | 82 | 101 | 5.2 | 8.7 | 0.00 | 0.00 | 0.00 | 64 | 1018.8 |
| 20260906210005 | 82 | 111 | 7.8 | 10.4 | 0.00 | 0.00 | 0.00 | 63 | 1019.3 |
| 20260906205505 | 82 | 102 | 7.8 | 10.4 | 0.00 | 0.00 | 0.00 | 63 | 1019.4 |
| 20260906205005 | 82 | 97 | 7.8 | 10.4 | 0.00 | 0.00 | 0.00 | 64 | 1019.5 |
| 20260906204505 | 82 | 105 | 6.1 | 8.7 | 0.00 | 0.00 | 0.00 | 64 | 1019.6 |
| 20260906204005 | 82 | 101 | 7.0 | 10.4 | 0.00 | 0.00 | 0.00 | 64 | 1019.7 |
| 20260906203505 | 82 | 101 | 7.0 | 10.4 | 0.00 | 0.00 | 0.00 | 63 | 1019.8 |
| 20260906202005 | 82 | 108 | 2.6 | 7.0 | 0.00 | 0.00 | 0.00 | 65 | 1020.3 |
| 20260906195005 | 82 | 97 | 7.8 | 10.4 | 0.00 | 0.00 | 0.00 | 64 | 1020.1 |
| 20260906194505 | 82 | 101 | 6.1 | 8.7 | 0.00 | 0.00 | 0.00 | 64 | 1020.1 |
| 20260906194005 | 81 | 108 | 7.8 | 10.4 | 0.00 | 0.00 | 0.00 | 65 | 1020.1 |
| 20260906193004 | 81 | 72 | 5.2 | 7.8 | 0.00 | 0.00 | 0.00 | 67 | 1020.2 |
| 20260906192005 | 81 | 111 | 4.3 | 7.8 | 0.00 | 0.00 | 0.00 | 66 | 1020.3 |
| 20260906191505 | 81 | 119 | 4.3 | 7.0 | 0.00 | 0.00 | 0.00 | 67 | 1020.3 |
| 20260906190504 | 81 | 114 | 6.1 | 8.7 | 0.00 | 0.00 | 0.00 | 67 | 1020.3 |
| 20260906190005 | 81 | 112 | 6.1 | 10.4 | 0.00 | 0.00 | 0.00 | 66 | 1020.4 |
| 20260906185504 | 81 | 109 | 5.2 | 8.7 | 0.00 | 0.00 | 0.00 | 68 | 1020.5 |
| 20260906185005 | 80 | 127 | 5.2 | 8.7 | 0.00 | 0.00 | 0.00 | 67 | 1020.6 |
| 20260906184505 | 80 | 80 | 4.3 | 7.0 | 0.00 | 0.00 | 0.00 | 69 | 1020.6 |
| 20260906184005 | 80 | 88 | 4.3 | 8.7 | 0.00 | 0.00 | 0.00 | 68 | 1020.5 |
| 20260906183005 | 81 | 128 | 7.8 | 10.4 | 0.00 | 0.00 | 0.00 | 66 | 1020.4 |
| 20260906182505 | 81 | 94 | 4.3 | 7.8 | 0.00 | 0.00 | 0.00 | 68 | 1020.4 |
| 20260906182005 | 80 | 93 | 6.1 | 8.7 | 0.00 | 0.00 | 0.00 | 70 | 1020.5 |
| 20260906181504 | 80 | 81 | 5.2 | 7.8 | 0.00 | 0.00 | 0.00 | 69 | 1020.6 |
| 20260906180504 | 80 | 73 | 6.1 | 7.8 | 0.00 | 0.00 | 0.00 | 70 | 1020.6 |
| 20260906180005 | 80 | 101 | 4.3 | 7.8 | 0.00 | 0.00 | 0.00 | 69 | 1020.6 |
| 20260906173005 | 79 | 87 | 5.2 | 7.8 | 0.00 | 0.00 | 0.00 | 70 | 1021.0 |
| 20260906172505 | 80 | 102 | 5.2 | 8.7 | 0.00 | 0.00 | 0.00 | 69 | 1021.0 |
| 20260906172005 | 80 | 106 | 4.3 | 7.8 | 0.00 | 0.00 | 0.00 | 69 | 1020.9 |
| 20260906171005 | 80 | 96 | 4.3 | 6.1 | 0.00 | 0.00 | 0.00 | 73 | 1021.1 |
| 20260906170005 | 79 | 136 | 2.6 | 7.0 | 0.00 | 0.00 | 0.00 | 73 | 1021.1 |
| 20260906164005 | 76 | 129 | 4.3 | 7.8 | 0.00 | 0.00 | 0.00 | 76 | 1021.4 |
| 20260906163504 | 76 | 115 | 2.6 | 7.8 | 0.00 | 0.00 | 0.00 | 78 | 1021.4 |
| 20260906163005 | 76 | 101 | 4.3 | 6.1 | 0.00 | 0.00 | 0.00 | 78 | 1021.4 |
| 20260906162005 | 75 | 126 | 5.2 | 7.8 | 0.00 | 0.00 | 0.00 | 79 | 1021.6 |
| 20260906161006 | 75 | 95 | 4.3 | 8.7 | 0.00 | 0.00 | 0.00 | 79 | 1021.5 |
| 20260906155005 | 75 | 138 | 4.3 | 7.8 | 0.00 | 0.00 | 0.00 | 80 | 1021.5 |
| 20260906154004 | 75 | 119 | 6.1 | 8.7 | 0.00 | 0.00 | 0.00 | 80 | 1021.3 |
| 20260906153004 | 75 | 132 | 2.6 | 6.1 | 0.00 | 0.00 | 0.00 | 79 | 1021.4 |
| 20260906152505 | 75 | 96 | 4.3 | 7.8 | 0.00 | 0.00 | 0.00 | 80 | 1021.3 |
| 20260906151504 | 75 | 109 | 3.5 | 5.2 | 0.00 | 0.00 | 0.00 | 79 | 1021.4 |
| 20260906150504 | 75 | 95 | 3.5 | 5.2 | 0.00 | 0.00 | 0.00 | 79 | 1021.4 |
| 20260906145504 | 75 | 103 | 6.1 | 7.8 | 0.00 | 0.00 | 0.00 | 79 | 1021.0 |
| 20260906145004 | 75 | 107 | 6.1 | 10.4 | 0.00 | 0.00 | 0.00 | 79 | 1021.0 |
| 20260906143504 | 75 | 89 | 6.1 | 8.7 | 0.00 | 0.00 | 0.00 | 81 | 1020.8 |
| 20260906143005 | 74 | 97 | 4.3 | 7.8 | 0.00 | 0.00 | 0.00 | 81 | 1020.8 |
| 20260906142505 | 74 | 101 | 5.2 | 8.7 | 0.00 | 0.00 | 0.00 | 80 | 1020.7 |
| 20260906141505 | 73 | 83 | 7.0 | 10.4 | 0.00 | 0.00 | 0.00 | 82 | 1020.6 |
| 20260906140004 | 72 | 90 | 6.1 | 8.7 | 0.00 | 0.00 | 0.00 | 86 | 1020.9 |
| 20260906135504 | 71 | 62 | 5.2 | 10.4 | 0.00 | 0.00 | 0.00 | 86 | 1020.8 |
| 20260906133004 | 70 | 59 | 4.3 | 7.8 | 0.00 | 0.00 | 0.00 | 89 | 1020.8 |
| 20260906131504 | 70 | 68 | 5.2 | 10.4 | 0.00 | 0.00 | 0.00 | 89 | 1020.8 |
| 20260906131005 | 69 | 77 | 6.1 | 10.4 | 0.00 | 0.00 | 0.00 | 89 | 1020.6 |
| 20260906130504 | 69 | 71 | 5.2 | 8.7 | 0.00 | 0.00 | 0.00 | 90 | 1020.6 |
| 20260906122504 | 67 | 80 | 3.5 | 6.1 | 0.00 | 0.00 | 0.00 | 92 | 1020.5 |
| 20260906122004 | 67 | 71 | 3.5 | 6.1 | 0.00 | 0.00 | 0.00 | 92 | 1020.4 |
| 20260906121004 | 67 | 68 | 0.9 | 2.6 | 0.00 | 0.00 | 0.00 | 93 | 1020.3 |
| 20260906120004 | 67 | 71 | 0.9 | 2.6 | 0.00 | 0.00 | 0.00 | 93 | 1020.3 |
| 20260906115504 | 67 | 65 | 2.6 | 2.6 | 0.00 | 0.00 | 0.00 | 93 | 1020.2 |
| 20260906113504 | 67 | 62 | 1.7 | 2.6 | 0.00 | 0.00 | 0.00 | 92 | 1020.0 |
| 20260906112005 | 67 | 74 | 1.7 | 2.6 | 0.00 | 0.00 | 0.00 | 92 | 1019.9 |
| 20260906111004 | 67 | 36 | 2.6 | 2.6 | 0.00 | 0.00 | 0.00 | 91 | 1019.9 |
| 20260906105504 | 68 | 73 | 3.5 | 6.1 | 0.00 | 0.00 | 0.00 | 91 | 1019.7 |
| 20260906102005 | 68 | 89 | 5.2 | 11.3 | 0.00 | 0.00 | 0.00 | 91 | 1019.3 |
| 20260906095004 | 67 | 67 | 6.1 | 10.4 | 0.00 | 0.00 | 0.00 | 92 | 1018.8 |
| 20260906094004 | 67 | 66 | 4.3 | 7.8 | 0.00 | 0.00 | 0.00 | 92 | 1018.9 |
| 20260906093504 | 67 | 65 | 2.6 | 7.0 | 0.00 | 0.00 | 0.00 | 92 | 1018.9 |
| 20260906092004 | 68 | 75 | 2.6 | 6.1 | 0.00 | 0.00 | 0.00 | 92 | 1018.9 |
| 20260906091504 | 68 | 69 | 3.5 | 7.0 | 0.00 | 0.00 | 0.00 | 92 | 1018.9 |
| 20260906091004 | 68 | 73 | 2.6 | 7.8 | 0.00 | 0.00 | 0.00 | 92 | 1018.8 |
| 20260906085504 | 68 | 91 | 5.2 | 7.8 | 0.00 | 0.00 | 0.00 | 91 | 1018.5 |
| 20260906084004 | 69 | 87 | 4.3 | 7.8 | 0.00 | 0.00 | 0.00 | 92 | 1018.6 |
| 20260906083503 | 69 | 91 | 4.3 | 6.1 | 0.00 | 0.00 | 0.00 | 92 | 1018.7 |
| 20260906083004 | 69 | 90 | 4.3 | 5.2 | 0.00 | 0.00 | 0.00 | 92 | 1018.8 |
| 20260906082005 | 69 | 75 | 3.5 | 6.1 | 0.00 | 0.00 | 0.00 | 92 | 1018.9 |
| 20260906080504 | 70 | 72 | 2.6 | 5.2 | 0.00 | 0.00 | 0.00 | 91 | 1019.0 |
| 20260906080004 | 70 | 84 | 3.5 | 6.1 | 0.00 | 0.00 | 0.00 | 90 | 1019.0 |
| 20260906075504 | 70 | 90 | 3.5 | 7.0 | 0.00 | 0.00 | 0.00 | 90 | 1018.9 |
| 20260906075004 | 70 | 84 | 4.3 | 7.8 | 0.00 | 0.00 | 0.00 | 90 | 1018.9 |
| 20260906074003 | 71 | 93 | 2.6 | 6.1 | 0.00 | 0.00 | 0.00 | 90 | 1018.9 |
| 20260906073504 | 71 | 84 | 5.2 | 7.8 | 0.00 | 0.00 | 0.00 | 90 | 1018.9 |
| 20260906071004 | 71 | 81 | 5.2 | 7.0 | 0.00 | 0.00 | 0.00 | 90 | 1019.1 |
| 20260906065004 | 71 | 61 | 4.3 | 7.0 | 0.00 | 0.00 | 0.00 | 90 | 1019.1 |
| 20260906064504 | 71 | 64 | 4.3 | 7.8 | 0.00 | 0.00 | 0.00 | 90 | 1019.0 |
| 20260906064004 | 72 | 89 | 4.3 | 7.0 | 0.00 | 0.00 | 0.00 | 90 | 1018.9 |
| 20260906063004 | 72 | 79 | 4.3 | 7.0 | 0.00 | 0.00 | 0.00 | 89 | 1019.0 |
| 20260906062503 | 72 | 88 | 2.6 | 7.0 | 0.00 | 0.00 | 0.00 | 89 | 1019.1 |
| 20260906061504 | 72 | 73 | 3.5 | 7.8 | 0.00 | 0.00 | 0.00 | 89 | 1019.1 |
| 20260906061003 | 72 | 62 | 4.3 | 7.8 | 0.00 | 0.00 | 0.00 | 89 | 1019.1 |
| 20260906055504 | 72 | 44 | 3.5 | 6.1 | 0.00 | 0.00 | 0.00 | 88 | 1018.9 |
| 20260906054504 | 72 | 69 | 4.3 | 6.1 | 0.00 | 0.00 | 0.00 | 88 | 1018.7 |
| 20260906053004 | 73 | 29 | 5.2 | 10.4 | 0.00 | 0.00 | 0.00 | 88 | 1018.8 |
| 20260906051503 | 73 | 67 | 4.3 | 7.8 | 0.00 | 0.00 | 0.00 | 88 | 1018.4 |
| 20260906050004 | 72 | 41 | 5.2 | 7.8 | 0.00 | 0.00 | 0.00 | 89 | 1018.9 |
| 20260906045004 | 72 | 43 | 3.5 | 7.8 | 0.00 | 0.00 | 0.00 | 89 | 1018.7 |
| 20260906044503 | 72 | 33 | 4.3 | 5.2 | 0.00 | 0.00 | 0.00 | 89 | 1018.8 |
| 20260906042506 | 72 | 12 | 4.3 | 4.3 | 0.00 | 0.00 | 0.00 | 90 | 1018.9 |
| 20260906040506 | 72 | 19 | 2.6 | 4.3 | 0.00 | 0.00 | 0.00 | 90 | 1018.4 |
| 20260906040005 | 72 | 23 | 2.6 | 4.3 | 0.00 | 0.00 | 0.00 | 90 | 1018.4 |
| 20260906035506 | 72 | 12 | 3.5 | 4.3 | 0.00 | 0.00 | 0.00 | 90 | 1018.5 |
| 20260906035006 | 72 | 5 | 2.6 | 2.6 | 0.00 | 0.00 | 0.00 | 90 | 1018.5 |
| 20260906033506 | 73 | 355 | 0.9 | 2.6 | 0.00 | 0.00 | 0.00 | 90 | 1018.4 |
| 20260906032505 | 73 | 9 | 2.6 | 2.6 | 0.00 | 0.00 | 0.00 | 90 | 1018.4 |
| 20260906031005 | 73 | 15 | 2.6 | 2.6 | 0.00 | 0.00 | 0.00 | 90 | 1018.2 |
| 20260906030005 | 73 | 54 | 1.7 | 1.7 | 0.00 | 0.00 | 0.00 | 90 | 1018.1 |
| 20260906025505 | 73 | 54 | 0.9 | 0.9 | 0.00 | 0.00 | 0.00 | 89 | 1018.1 |
| 20260906025005 | 73 | 54 | 0.0 | 0.9 | 0.00 | 0.00 | 0.00 | 89 | 1018.0 |
| 20260906024006 | 73 | 54 | 0.0 | 0.9 | 0.00 | 0.00 | 0.00 | 89 | 1017.8 |
| 20260906021505 | 73 | 34 | 0.9 | 1.7 | 0.00 | 0.00 | 0.00 | 88 | 1017.4 |
| 20260906020506 | 73 | 35 | 1.7 | 2.6 | 0.00 | 0.00 | 0.00 | 88 | 1017.1 |
| 20260906014505 | 74 | 82 | 0.9 | 1.7 | 0.00 | 0.00 | 0.00 | 86 | 1016.8 |
| 20260906013505 | 75 | 82 | 0.9 | 1.7 | 0.00 | 0.00 | 0.00 | 85 | 1016.6 |
| 20260906012505 | 75 | 73 | 1.7 | 2.6 | 0.00 | 0.00 | 0.00 | 85 | 1016.6 |
| 20260906012006 | 75 | 57 | 1.7 | 2.6 | 0.00 | 0.00 | 0.00 | 84 | 1016.6 |
| 20260906011505 | 75 | 63 | 0.9 | 2.6 | 0.00 | 0.00 | 0.00 | 84 | 1016.6 |
| 20260906011006 | 75 | 74 | 1.7 | 2.6 | 0.00 | 0.00 | 0.00 | 84 | 1016.7 |
| 20260906010505 | 76 | 60 | 2.6 | 5.2 | 0.00 | 0.00 | 0.00 | 83 | 1016.5 |
| 20260906010006 | 76 | 56 | 2.6 | 5.2 | 0.00 | 0.00 | 0.00 | 83 | 1016.6 |
| 20260906005506 | 76 | 56 | 4.3 | 6.1 | 0.00 | 0.00 | 0.00 | 83 | 1016.6 |
| 20260906005005 | 76 | 61 | 4.3 | 8.7 | 0.00 | 0.00 | 0.00 | 82 | 1016.6 |
| 20260906003005 | 77 | 54 | 5.2 | 8.7 | 0.00 | 0.00 | 0.00 | 81 | 1016.5 |
| 20260906002005 | 78 | 59 | 4.3 | 7.0 | 0.00 | 0.00 | 0.00 | 80 | 1016.5 |
| 20260906001505 | 78 | 69 | 5.2 | 8.7 | 0.00 | 0.00 | 0.00 | 80 | 1016.4 |
| 20260906000505 | 79 | 65 | 4.3 | 10.4 | 0.00 | 0.00 | 0.00 | 78 | 1016.5 |
| 20260906000005 | 79 | 74 | 6.1 | 10.4 | 0.00 | 0.00 | 0.00 | 78 | 1016.4 |
| 20260905235506 | 80 | 67 | 6.1 | 8.7 | 0.00 | 0.00 | 0.00 | 78 | 1016.3 |
| 20260905234505 | 81 | 82 | 3.5 | 7.0 | 0.00 | 0.00 | 0.00 | 77 | 1016.3 |
| 20260905234006 | 81 | 59 | 5.2 | 7.8 | 0.00 | 0.00 | 0.00 | 76 | 1016.4 |
| 20260905233505 | 82 | 67 | 5.2 | 8.7 | 0.00 | 0.00 | 0.00 | 75 | 1016.3 |
| 20260905233005 | 82 | 77 | 4.3 | 7.8 | 0.00 | 0.00 | 0.00 | 75 | 1016.3 |